| time (UTC) | temp F | wind direction | speed MPH | gust MPH | rain 1hr in | rain 24hr in | rain mn in | humidity % | barometer mb |
| 20260504100349 | 66 | 223 | 1.0 | 2.0 | 0.00 | 0.00 | 0.00 | 84 | 1015.4 |
| 20260504080348 | 67 | 51 | 10.0 | 15.0 | 0.00 | 0.00 | 0.00 | 84 | 1013.3 |
| 20260504070348 | 68 | 53 | 9.0 | 12.0 | 0.00 | 0.00 | 0.00 | 83 | 1012.8 |
| 20260504050348 | 67 | 51 | 7.0 | 12.0 | 0.00 | 0.00 | 0.00 | 84 | 1012.5 |
| 20260504043348 | 67 | 48 | 8.0 | 14.0 | 0.00 | 0.00 | 0.00 | 85 | 1012.8 |
| 20260504040347 | 67 | 35 | 8.0 | 20.0 | 0.00 | 0.00 | 0.00 | 87 | 1012.8 |
| 20260504033347 | 67 | 41 | 10.0 | 20.0 | 0.00 | 0.00 | 0.00 | 86 | 1013.2 |
| 20260504030349 | 66 | 44 | 5.0 | 9.0 | 0.00 | 0.00 | 0.00 | 88 | 1013.9 |
| 20260504023346 | 66 | 34 | 8.0 | 12.0 | 0.00 | 0.00 | 0.00 | 88 | 1014.0 |
| 20260504020346 | 65 | 43 | 10.0 | 17.0 | 0.00 | 0.00 | 0.00 | 90 | 1014.3 |
| 20260504013346 | 64 | 47 | 8.0 | 12.0 | 0.00 | 0.00 | 0.00 | 91 | 1015.0 |
| 20260504010346 | 64 | 27 | 2.0 | 3.0 | 0.00 | 0.00 | 0.00 | 92 | 1016.1 |
| 20260504003346 | 65 | 28 | 7.0 | 12.0 | 0.00 | 0.00 | 0.00 | 88 | 1016.4 |
| 20260504000346 | 65 | 1 | 6.0 | 8.0 | 0.00 | 0.00 | 0.00 | 85 | 1016.0 |
| 20260503233349 | 65 | 67 | 5.0 | 10.0 | 0.00 | 0.00 | 0.00 | 88 | 1016.0 |
| 20260503230349 | 65 | 101 | 3.0 | 6.0 | 0.00 | 0.00 | 0.00 | 89 | 1016.2 |
| 20260503223349 | 67 | 75 | 2.0 | 3.0 | 0.00 | 0.00 | 0.00 | 85 | 1016.4 |
| 20260503220349 | 67 | 37 | 8.0 | 10.0 | 0.00 | 0.00 | 0.00 | 85 | 1015.9 |
| 20260503213349 | 68 | 30 | 7.0 | 12.0 | 0.00 | 0.00 | 0.00 | 82 | 1015.4 |
| 20260503210349 | 67 | 31 | 7.0 | 10.0 | 0.00 | 0.00 | 0.00 | 83 | 1015.1 |
| 20260503203349 | 67 | 54 | 5.0 | 7.0 | 0.00 | 0.00 | 0.00 | 83 | 1015.1 |
| 20260503200349 | 67 | 40 | 3.0 | 6.0 | 0.00 | 0.00 | 0.00 | 83 | 1015.0 |
| 20260503193349 | 67 | 56 | 5.0 | 9.0 | 0.00 | 0.00 | 0.00 | 85 | 1015.1 |
| 20260503190349 | 67 | 54 | 6.0 | 7.0 | 0.00 | 0.00 | 0.00 | 85 | 1015.3 |
| 20260503183348 | 67 | 26 | 1.0 | 2.0 | 0.00 | 0.00 | 0.00 | 84 | 1015.5 |
| 20260503180348 | 67 | 332 | 3.0 | 5.0 | 0.00 | 0.00 | 0.00 | 82 | 1015.5 |
| 20260503173345 | 66 | 83 | 0.0 | 0.0 | 0.00 | 0.00 | 0.00 | 84 | 1015.5 |
| 20260503170350 | 67 | 35 | 5.0 | 12.0 | 0.00 | 0.00 | 0.00 | 84 | 1015.2 |
| 20260503150350 | 67 | 8 | 5.0 | 8.0 | 0.00 | 0.00 | 0.00 | 86 | 1016.1 |
| 20260503130349 | 69 | 312 | 7.0 | 12.0 | 0.00 | 0.00 | 0.00 | 81 | 1016.6 |
| 20260503110348 | 69 | 320 | 1.0 | 1.0 | 0.00 | 0.00 | 0.00 | 83 | 1017.5 |